Regional Weather Roundup
Issued by NWS

Home | Current Version | Previous Version | Graphics & Text | Print | Product List | Glossary On
Versions: 1 2 3 4 5 6 7 8 9 10 11 12 13 14 15 16 17 18 19 20 21 22 23 24 25 26 27 28 29 30 31 32 33 34 35 36 37 38 39 40 41 42 43 44 45 46 47 48 49 50
384
ASUS45 KABQ 091310
RWRNM
NEW MEXICO REGIONAL WEATHER ROUNDUP
NATIONAL WEATHER SERVICE ALBUQUERQUE NM
600 AM MST FRI DEC 09 2016

NOTE: "FAIR" MEANS FEW OR NO CLOUDS BELOW 12,000 FEET AGL WITH NO
       SIGNIFICANT WEATHER OR OBSTRUCTIONS TO VISION.

      THIS PRODUCT IS RELEASED AS TWO VERSIONS.  ONE VERSION NEAR
      THE TOP OF THE HOUR CONTAINING PRELIMINARY DATA FROM ALBUQUERQUE
      AND OTHER STATIONS.  A FINAL VERSION WITH ADDITIONAL DATA IS
      ISSUED ABOUT 10 MINUTES AFTER THE HOUR.

NMZ501-503-504-510>518-091400-
NORTHWEST PLATEAU/NORTHCENTRAL MOUNTAINS

CITY           SKY/WX    TMP DP  RH WIND       PRES   REMARKS
FARMINGTON     FAIR      24  18  77 NE6       30.31S WCI  17
LOS ALAMOS     FAIR      22  15  73 CALM      30.31R
SANTA FE       FAIR      23  19  85 NW5       30.31R WCI  17
TAOS           FAIR      12   1  62 NW6       30.32R WCI   3
ANGEL FIRE     FAIR      19  13  77 SE9       30.27R WCI   7

$$
NMZ402-403-502-505>509-091400-
WESTCENTRAL MOUNTAINS/SOUTHWEST MOUNTAINS

CITY           SKY/WX    TMP DP  RH WIND       PRES   REMARKS
GALLUP         FAIR      19  16  88 CALM      30.32R
GRANTS         FAIR      16  13  88 NW5       30.35R WCI   9
SILVER CITY    FAIR      21  19  91 CALM      30.36R

$$
NMZ407-409-411-412-091400-
SOUTHERN DESERTS

CITY           SKY/WX    TMP DP  RH WIND       PRES   REMARKS
DEMING         FAIR      23  21  92 NE5       30.39R WCI  17
LAS CRUCES     FAIR      26  24  95 S5        30.40R WCI  20
HOLLOMAN AFB   FAIR      18  15  86 N6        30.46S WCI  10
T OR C         FAIR      26  22  84 NW5       30.36S WCI  20

$$
NMZ519>523-091400-
CENTRAL VALLEYS/CENTRAL HIGHLANDS

CITY           SKY/WX    TMP DP  RH WIND       PRES   REMARKS
ALBUQUERQUE    FAIR      26  18  71 NE3       30.35R
DOUBLE EAGLE   CLEAR     16  12  86 W5        30.35R WCI   9
MORIARTY ARPT  FAIR      10   7  85 CALM      30.32R
CLINES CORNERS FAIR      19  15  84 NW13      30.28R WCI   6
BELEN          FAIR      20  17  91 CALM      30.36R
SOCORRO        FAIR      24  22  92 SW7       30.37R WCI  16

$$
NMZ524>526-539-540-091400-
SOUTHCENTRAL MOUNTAINS

CITY           SKY/WX    TMP DP  RH WIND       PRES   REMARKS
RUIDOSO        FAIR      25  23  93 W5        30.32R WCI  19

$$
NMZ527>531-091400-
NORTHEAST HIGHLANDS/NORTHEAST PLAINS

CITY           SKY/WX    TMP DP  RH WIND       PRES   REMARKS
LAS VEGAS      FAIR      16  11  80 CALM      30.21R
RATON          CLOUDY    19  14  81 N7        30.19F HAZE    WCI  10
CLAYTON        FAIR      23  21  92 SW16      30.16F WCI  10

$$
NMZ532>537-091400-
EASTCENTRAL PLAINS

CITY           SKY/WX    TMP DP  RH WIND       PRES   REMARKS
TUCUMCARI      FAIR      26  22  84 SW18G28   30.29S WCI  13
CANNON AFB     CLOUDY    24  24 100 SW15      30.35R WCI  12
CLOVIS AIRPORT CLOUDY    25  19  80 SW17G23   30.34S WCI  11

$$
NMZ028-029-538-091400-
SOUTHEAST PLAINS

CITY           SKY/WX    TMP DP  RH WIND       PRES   REMARKS
ROSWELL        CLOUDY    28  24  85 S12       30.38F WCI  18
ARTESIA        CLOUDY    28  28 100 SE15      30.40F WCI  17
CARLSBAD       NOT AVBL


$$




USA.gov is the U.S. government's official web portal to all federal, state and local government web resources and services.